TimeEDT,TemperatureF,Dew PointF,Humidity,Sea Level PressureIn,VisibilityMPH,Wind Direction,Wind SpeedMPH,Gust SpeedMPH,PrecipitationIn,Events,Conditions,WindDirDegrees,DateUTC
12:15 AM,19.4,10.4,68,29.95,10.0,NW,8.1,-,N/A,,Clear,310,2014-04-15 04:15:00
12:35 AM,19.4,10.4,68,29.96,10.0,WNW,6.9,-,N/A,,Clear,300,2014-04-15 04:35:00
12:55 AM,19.4,12.2,74,29.96,10.0,WNW,6.9,-,N/A,,Clear,300,2014-04-15 04:55:00
1:15 AM,19.4,10.4,68,29.96,10.0,WNW,6.9,-,N/A,,Clear,290,2014-04-15 05:15:00
1:35 AM,19.4,12.2,74,29.97,10.0,WNW,6.9,-,N/A,,Clear,290,2014-04-15 05:35:00
1:55 AM,19.4,10.4,68,29.97,10.0,WNW,6.9,-,N/A,,Clear,290,2014-04-15 05:55:00
2:15 AM,17.6,10.4,73,29.97,10.0,WNW,8.1,-,N/A,,Clear,290,2014-04-15 06:15:00
2:35 AM,17.6,10.4,73,29.97,10.0,WNW,6.9,-,N/A,,Clear,290,2014-04-15 06:35:00
2:55 AM,17.6,10.4,73,29.97,10.0,WNW,9.2,-,N/A,,Clear,290,2014-04-15 06:55:00
3:15 AM,17.6,10.4,73,29.96,10.0,WNW,8.1,-,N/A,,Clear,300,2014-04-15 07:15:00
3:35 AM,17.6,10.4,73,29.96,10.0,WNW,6.9,-,N/A,,Clear,300,2014-04-15 07:35:00
3:55 AM,17.6,8.6,68,29.97,10.0,WNW,8.1,-,N/A,,Clear,300,2014-04-15 07:55:00
4:15 AM,15.8,8.6,73,29.97,10.0,WNW,6.9,-,N/A,,Clear,300,2014-04-15 08:15:00
4:35 AM,15.8,8.6,73,29.97,10.0,WNW,6.9,-,N/A,,Clear,300,2014-04-15 08:35:00
4:55 AM,15.8,8.6,73,29.97,10.0,WNW,8.1,-,N/A,,Clear,300,2014-04-15 08:55:00
5:15 AM,15.8,8.6,73,29.97,10.0,WNW,9.2,-,N/A,,Clear,300,2014-04-15 09:15:00
5:35 AM,15.8,8.6,73,29.97,10.0,WNW,9.2,-,N/A,,Clear,300,2014-04-15 09:35:00
5:55 AM,15.8,6.8,68,29.97,10.0,WNW,10.4,-,N/A,,Clear,300,2014-04-15 09:55:00
6:15 AM,15.8,6.8,68,29.98,10.0,NW,8.1,-,N/A,,Clear,310,2014-04-15 10:15:00
6:35 AM,15.8,6.8,68,29.99,10.0,WNW,6.9,-,N/A,,Clear,300,2014-04-15 10:35:00
6:55 AM,15.8,6.8,68,30.00,10.0,WNW,6.9,-,N/A,,Clear,300,2014-04-15 10:55:00
7:15 AM,14.0,6.8,73,30.00,10.0,WNW,6.9,-,N/A,,Clear,300,2014-04-15 11:15:00
7:35 AM,15.8,8.6,73,30.01,10.0,WNW,6.9,-,N/A,,Clear,300,2014-04-15 11:35:00
7:55 AM,15.8,6.8,68,30.02,10.0,WNW,6.9,-,N/A,,Clear,300,2014-04-15 11:55:00
8:15 AM,15.8,8.6,73,30.02,10.0,NW,8.1,-,N/A,,Clear,310,2014-04-15 12:15:00
8:35 AM,17.6,8.6,68,30.03,10.0,NW,5.8,-,N/A,,Clear,310,2014-04-15 12:35:00
8:55 AM,19.4,10.4,68,30.03,10.0,NW,6.9,-,N/A,,Clear,320,2014-04-15 12:55:00
9:15 AM,19.4,8.6,63,30.03,10.0,NNW,5.8,-,N/A,,Clear,340,2014-04-15 13:15:00
9:35 AM,21.2,8.6,58,30.04,10.0,NNW,6.9,-,N/A,,Clear,340,2014-04-15 13:35:00
9:55 AM,21.2,8.6,58,30.04,10.0,North,5.8,-,N/A,,Clear,360,2014-04-15 13:55:00
10:15 AM,21.2,8.6,58,30.04,10.0,North,10.4,16.1,N/A,,Clear,350,2014-04-15 14:15:00
10:35 AM,23.0,6.8,50,30.04,10.0,NNW,9.2,-,N/A,,Partly Cloudy,330,2014-04-15 14:35:00
10:55 AM,24.8,8.6,50,30.04,10.0,NNW,9.2,16.1,N/A,,Scattered Clouds,330,2014-04-15 14:55:00
11:15 AM,24.8,8.6,50,30.04,10.0,NNW,10.4,16.1,N/A,,Mostly Cloudy,330,2014-04-15 15:15:00
11:35 AM,24.8,6.8,46,30.04,10.0,NW,9.2,-,N/A,,Overcast,320,2014-04-15 15:35:00
11:55 AM,24.8,8.6,50,30.04,10.0,West,9.2,-,N/A,,Overcast,270,2014-04-15 15:55:00
12:15 PM,24.8,10.4,54,30.04,7.0,NW,11.5,16.1,N/A,,Overcast,320,2014-04-15 16:15:00
12:55 PM,24.8,8.6,50,30.04,8.0,NNW,9.2,17.3,N/A,,Overcast,330,2014-04-15 16:55:00
1:15 PM,24.8,10.4,54,30.04,10.0,Calm,Calm,-,N/A,,Overcast,0,2014-04-15 17:15:00
1:55 PM,26.6,15.8,64,30.03,8.0,North,5.8,-,N/A,,Overcast,360,2014-04-15 17:55:00
2:15 PM,26.6,12.2,55,30.03,10.0,West,8.1,-,N/A,,Overcast,260,2014-04-15 18:15:00
2:35 PM,28.4,8.6,43,30.03,10.0,WSW,13.8,-,N/A,,Overcast,240,2014-04-15 18:35:00
2:55 PM,26.6,10.4,51,30.03,9.0,NW,12.7,18.4,N/A,,Overcast,310,2014-04-15 18:55:00
3:15 PM,26.6,12.2,55,30.04,10.0,WNW,6.9,-,N/A,,Scattered Clouds,290,2014-04-15 19:15:00
3:35 PM,28.4,10.4,47,30.04,7.0,WNW,12.7,17.3,N/A,,Mostly Cloudy,290,2014-04-15 19:35:00
3:55 PM,26.6,15.8,64,30.04,1.2,West,5.8,-,N/A,,Overcast,280,2014-04-15 19:55:00
4:15 PM,28.4,17.6,64,30.03,10.0,Calm,Calm,-,N/A,,Mostly Cloudy,0,2014-04-15 20:15:00
4:35 PM,28.4,14.0,55,30.04,10.0,SSE,9.2,-,N/A,,Mostly Cloudy,160,2014-04-15 20:35:00
4:55 PM,26.6,17.6,69,30.03,10.0,SW,5.8,-,N/A,,Overcast,220,2014-04-15 20:55:00
5:15 PM,28.4,15.8,59,30.04,9.0,NW,9.2,-,N/A,,Mostly Cloudy,310,2014-04-15 21:15:00
5:35 PM,26.6,17.6,69,30.05,0.8,NE,6.9,-,N/A,,Overcast,50,2014-04-15 21:35:00
5:55 PM,26.6,21.2,80,30.05,1.2,East,6.9,-,N/A,,Overcast,100,2014-04-15 21:55:00
6:15 PM,26.6,21.2,80,30.05,10.0,ESE,5.8,-,N/A,,Mostly Cloudy,110,2014-04-15 22:15:00
6:35 PM,26.6,19.4,74,30.06,10.0,NE,9.2,-,N/A,,Mostly Cloudy,40,2014-04-15 22:35:00
6:55 PM,26.6,19.4,74,30.07,10.0,ENE,6.9,-,N/A,,Mostly Cloudy,70,2014-04-15 22:55:00
7:15 PM,26.6,19.4,74,30.07,10.0,ENE,4.6,-,N/A,,Overcast,70,2014-04-15 23:15:00
7:35 PM,26.6,19.4,74,30.08,10.0,East,4.6,-,N/A,,Overcast,80,2014-04-15 23:35:00
7:55 PM,24.8,19.4,80,30.08,0.8,Calm,Calm,-,N/A,,Overcast,0,2014-04-15 23:55:00
8:15 PM,24.8,19.4,80,30.09,2.0,East,3.5,-,N/A,,Overcast,80,2014-04-16 00:15:00
8:35 PM,23.0,19.4,86,30.10,10.0,Calm,Calm,-,N/A,,Partly Cloudy,0,2014-04-16 00:35:00
8:55 PM,23.0,19.4,86,30.11,8.0,Calm,Calm,-,N/A,,Mostly Cloudy,0,2014-04-16 00:55:00
9:15 PM,23.0,19.4,86,30.12,5.0,ENE,3.5,-,N/A,,Overcast,60,2014-04-16 01:15:00
9:35 PM,23.0,17.6,80,30.13,10.0,NE,4.6,-,0.01,,Scattered Clouds,50,2014-04-16 01:35:00
9:55 PM,23.0,17.6,80,30.14,10.0,NE,4.6,-,0.01,,Clear,40,2014-04-16 01:55:00
10:15 PM,23.0,15.8,74,30.15,10.0,NNE,4.6,-,N/A,,Clear,30,2014-04-16 02:15:00
10:35 PM,21.2,15.8,80,30.15,10.0,NNE,3.5,-,N/A,,Partly Cloudy,30,2014-04-16 02:35:00
10:55 PM,21.2,12.2,68,30.16,10.0,NE,4.6,-,N/A,,Clear,40,2014-04-16 02:55:00
11:15 PM,21.2,12.2,68,30.17,10.0,NNE,4.6,-,N/A,,Clear,30,2014-04-16 03:15:00
11:35 PM,19.4,12.2,74,30.18,10.0,NE,3.5,-,N/A,,Clear,40,2014-04-16 03:35:00
11:55 PM,19.4,12.2,74,30.18,10.0,NE,3.5,-,N/A,,Clear,40,2014-04-16 03:55:00